TimeCDT,TemperatureF,Dew PointF,Humidity,Sea Level PressureIn,VisibilityMPH,Wind Direction,Wind SpeedMPH,Gust SpeedMPH,PrecipitationIn,Events,Conditions,WindDirDegrees,DateUTC
12:53 AM,60.1,50.0,69,29.81,10.0,NNW,10.4,-,N/A,,Scattered Clouds,330,2013-05-22 05:53:00
1:53 AM,57.0,48.9,74,29.81,10.0,NNW,8.1,-,N/A,,Scattered Clouds,330,2013-05-22 06:53:00
2:53 AM,55.0,48.9,80,29.80,10.0,NW,6.9,-,N/A,,Scattered Clouds,320,2013-05-22 07:53:00
3:53 AM,54.0,48.0,80,29.81,10.0,WNW,6.9,-,N/A,,Mostly Cloudy,300,2013-05-22 08:53:00
4:53 AM,54.0,48.0,80,29.83,10.0,NW,11.5,-,N/A,,Mostly Cloudy,320,2013-05-22 09:53:00
5:53 AM,54.0,48.0,80,29.82,10.0,NNW,10.4,-,N/A,,Mostly Cloudy,330,2013-05-22 10:53:00
6:53 AM,53.1,48.0,83,29.86,10.0,NW,9.2,-,N/A,,Scattered Clouds,320,2013-05-22 11:53:00
7:53 AM,55.9,48.9,77,29.87,10.0,NNW,9.2,-,N/A,,Scattered Clouds,330,2013-05-22 12:53:00
8:53 AM,59.0,48.9,69,29.88,10.0,NNW,11.5,-,N/A,,Partly Cloudy,340,2013-05-22 13:53:00
9:53 AM,62.1,50.0,65,29.90,10.0,WNW,12.7,-,N/A,,Scattered Clouds,300,2013-05-22 14:53:00
10:53 AM,64.0,50.0,60,29.91,10.0,WNW,10.4,-,N/A,,Scattered Clouds,300,2013-05-22 15:53:00
11:53 AM,64.9,52.0,63,29.91,10.0,WNW,11.5,18.4,N/A,,Scattered Clouds,300,2013-05-22 16:53:00
12:53 PM,69.1,53.1,57,29.90,10.0,West,9.2,18.4,N/A,,Scattered Clouds,280,2013-05-22 17:53:00
1:53 PM,71.1,52.0,51,29.88,10.0,WNW,11.5,19.6,N/A,,Scattered Clouds,300,2013-05-22 18:53:00
2:53 PM,73.9,55.0,52,29.87,10.0,Variable,5.8,-,N/A,,Scattered Clouds,0,2013-05-22 19:53:00
3:53 PM,75.9,54.0,46,29.85,10.0,Variable,6.9,-,N/A,,Partly Cloudy,0,2013-05-22 20:53:00
4:53 PM,75.9,54.0,46,29.84,10.0,WNW,8.1,-,N/A,,Partly Cloudy,300,2013-05-22 21:53:00
5:53 PM,77.0,54.0,45,29.84,10.0,NW,5.8,-,N/A,,Partly Cloudy,310,2013-05-22 22:53:00
6:53 PM,77.0,53.1,43,29.86,10.0,NW,4.6,-,N/A,,Partly Cloudy,310,2013-05-22 23:53:00
7:53 PM,75.0,52.0,44,29.86,10.0,Calm,Calm,-,N/A,,Partly Cloudy,0,2013-05-23 00:53:00
8:53 PM,71.1,54.0,55,29.88,10.0,NE,4.6,-,N/A,,Partly Cloudy,50,2013-05-23 01:53:00
9:53 PM,68.0,54.0,61,29.90,10.0,ENE,5.8,-,N/A,,Clear,70,2013-05-23 02:53:00
10:53 PM,66.0,55.0,68,29.92,10.0,ENE,10.4,-,N/A,,Clear,60,2013-05-23 03:53:00
11:53 PM,63.0,55.0,75,29.93,10.0,East,5.8,-,N/A,,Clear,90,2013-05-23 04:53:00